Content
SEND FEEDBACK

Daily
Averages
Monthly
Summary
United States of America

HOTCHKISS, COLORADO


Home > North America > United States > Colorado
Elevation: 1832 meters     Latitude: 38 51N     Longitude: 107 35W

WEATHER
 
SELECT A DAY
Number of Records: 58,982;   Date Range: 2/9/12 - 9/19/14
 
SHARE

PRINT THIS DATA

[ ← Previous Day ]
WEATHER ALMANAC - 31 JANUARY, 2013
[ Next Day → ]
[ °F ]   °C
Weather ElementAverageHighLow
Temperature1.3 °C8 °C (3:15 pm)-3.1 °C (5:35 am)
Dewpoint-3.4 °C-1.3 °C (8:15 pm)-6 °C (3:55 pm)
Humidity73.6 %93 % (5:15 am)37 % (3:55 pm)
Barometer1025.1 hPa1028.1 hPa (9:55 am)1022.4 hPa (12:35 am)
Wind Speed2.9 km/h11.1 km/h (12:35 pm)
Weather ElementAverage
Visibility16.1 km
Wind DirectionNNE (36.9 °)

Weather ElementTotal
Precipitation---
Heating Degree Days15.9 (Base 18.3)
Averaged from 71 records on 31 January, 2013
WEATHER CONDITIONS BREAKOUT
WIND DIRECTION BREAKOUT
WEATHER BY HOUR - 31 JANUARY, 2013
[ °F ]   °C
Local TimeTemperatureDewpointHumidityBarometerVisibilityWind DirectionWind SpeedGust SpeedPrecipitationEventsConditions
12:35 AM-1.2 °C-4.1 °C81 %1022.4 hPa16.1 kmCalmOvercast
12:55 AM-1.5 °C-4.2 °C82 %1022.4 hPa16.1 kmESE (120°)5.6 km/hOvercast
1:15 AM-1.5 °C-4.1 °C83 %1022.4 hPa16.1 kmCalmOvercast
1:35 AM-1.5 °C-3.8 °C85 %1022.4 hPa16.1 kmCalmOvercast
1:55 AM-1.5 °C-3.8 °C85 %1022.4 hPa16.1 kmCalmOvercast
2:15 AM-1.9 °C-4 °C86 %1022.7 hPa16.1 kmCalmOvercast
2:35 AM-1.7 °C-3.7 °C86 %1023 hPa16.1 kmCalmOvercast
2:55 AM-1.5 °C-4 °C83 %1023 hPa16.1 kmCalmOvercast
3:15 AM-1.3 °C-3.7 °C84 %1023.4 hPa16.1 kmNE (50°)5.6 km/hOvercast
3:35 AM-1.2 °C-4.1 °C81 %1023 hPa16.1 kmCalmOvercast
3:55 AM-1.9 °C-3.7 °C88 %1023.4 hPa16.1 kmWSW (240°)5.6 km/hOvercast
4:15 AM-2.1 °C-3.5 °C90 %1023.4 hPa16.1 kmCalmOvercast
4:35 AM-2.2 °C-3.7 °C90 %1023.7 hPa16.1 kmCalmOvercast
4:55 AM-2.5 °C-3.9 °C90 %1024 hPa16.1 kmESE (120°)7.4 km/hOvercast
5:15 AM-3 °C-4 °C93 %1024 hPa16.1 kmCalmOvercast
5:35 AM-3.1 °C-4.2 °C92 %1024.4 hPa16.1 kmCalmMostly Cloudy
5:55 AM-3.1 °C-4.2 °C92 %1024.4 hPa16.1 kmCalmScattered Clouds
6:15 AM-2.7 °C-4.1 °C90 %1024.7 hPa16.1 kmCalmMostly Cloudy
6:35 AM-2.1 °C-4.3 °C85 %1024.7 hPa16.1 kmCalmOvercast
6:55 AM-2.5 °C-4.4 °C87 %1024.7 hPa16.1 kmESE (110°)7.4 km/hOvercast
7:15 AM-3 °C-4.3 °C91 %1025.4 hPa16.1 kmCalmOvercast
7:35 AM-3 °C-4.5 °C90 %1025.7 hPa16.1 kmCalmOvercast
7:55 AM-2.7 °C-4.2 °C90 %1026.1 hPa16.1 kmWSW (240°)5.6 km/hOvercast
8:15 AM-2.5 °C-4.1 °C89 %1026.4 hPa16.1 kmCalmOvercast
8:35 AM-2 °C-3.9 °C87 %1026.8 hPa16.1 kmCalmOvercast
8:55 AM-1.2 °C-4 °C81 %1027.1 hPa16.1 kmCalmMostly Cloudy
9:15 AM-0.5 °C-3.8 °C79 %1027.4 hPa16.1 kmCalmMostly Cloudy
9:35 AM-0.6 °C-4 °C78 %1027.8 hPa16.1 kmCalmOvercast
9:55 AM-0.2 °C-3.8 °C77 %1028.1 hPa16.1 kmCalmOvercast
10:15 AM-0.2 °C-3.9 °C76 %1028.1 hPa16.1 kmCalmOvercast
10:35 AM0.2 °C-3.4 °C77 %1028.1 hPa16.1 kmCalmOvercast
10:55 AM0.9 °C-3.3 °C74 %1028.1 hPa16.1 kmCalmOvercast
11:15 AM2.1 °C-2.2 °C73 %1028.1 hPa16.1 kmNE (50°)5.6 km/hMostly Cloudy
11:35 AM3.2 °C-1.7 °C71 %1027.8 hPa16.1 kmENE (60°)7.4 km/hClear
11:55 AM3.6 °C-1.8 °C68 %1027.1 hPa16.1 kmENE (70°)9.3 km/hClear
12:15 PM4.6 °C-1.4 °C65 %1026.4 hPa16.1 kmEast (80°)9.3 km/hClear
12:35 PM5.6 °C-2.4 °C57 %1026.1 hPa16.1 kmENE (60°)11.1 km/hClear
12:55 PM6.1 °C-2.3 °C55 %1025.7 hPa16.1 kmEast (100°)9.3 km/hClear
1:15 PM6.6 °C-2.2 °C54 %1025.4 hPa16.1 kmESE (110°)7.4 km/hClear
1:35 PM6.8 °C-3.5 °C48 %1025.1 hPa16.1 kmESE (110°)5.6 km/hClear
1:55 PM7.2 °C-3.1 °C48 %1024.7 hPa16.1 kmEast (80°)7.4 km/hClear
2:15 PM7.5 °C-4.4 °C43 %1024.7 hPa16.1 kmENE (60°)5.6 km/hClear
2:35 PM7.7 °C-4.2 °C43 %1024.4 hPa16.1 kmENE (60°)7.4 km/hScattered Clouds
2:55 PM7.8 °C-5.2 °C40 %1024.4 hPa16.1 kmENE (70°)5.6 km/hMostly Cloudy
3:15 PM8 °C-5.1 °C39 %1024 hPa16.1 kmCalmScattered Clouds
3:35 PM7.9 °C-5.3 °C39 %1024 hPa16.1 kmNE (50°)9.3 km/hClear
3:55 PM7.8 °C-6 °C37 %1024 hPa16.1 kmCalmClear
4:15 PM7.9 °C-5.3 °C39 %1024 hPa16.1 kmEast (90°)5.6 km/hClear
4:35 PM7.8 °C-5 °C40 %1024 hPa16.1 kmEast (80°)5.6 km/hClear
4:55 PM7.5 °C-5.3 °C40 %1024 hPa16.1 kmSE (130°)5.6 km/hScattered Clouds
5:15 PM7 °C-4.2 °C45 %1024.4 hPa16.1 kmCalmScattered Clouds
5:35 PM6.5 °C-4.2 °C47 %1024.4 hPa16.1 kmCalmClear
5:55 PM5.2 °C-2.7 °C57 %1024.7 hPa16.1 kmCalmClear
6:15 PM5 °C-4.1 °C52 %1025.1 hPa16.1 kmCalmScattered Clouds
6:35 PM3.2 °C-2.4 °C67 %1025.1 hPa16.1 kmSSW (200°)7.4 km/hOvercast
6:55 PM2.8 °C-1.4 °C74 %1025.4 hPa16.1 kmCalmOvercast
7:15 PM1.5 °C-1.6 °C80 %1025.4 hPa16.1 kmCalmScattered Clouds
7:35 PM1 °C-2.1 °C80 %1025.4 hPa16.1 kmENE (60°)5.6 km/hScattered Clouds
7:55 PM1.2 °C-1.5 °C82 %1025.4 hPa16.1 kmEast (100°)5.6 km/hClear
8:15 PM0.9 °C-1.3 °C85 %1026.1 hPa16.1 kmCalmClear
8:35 PM0.7 °C-1.5 °C85 %1026.1 hPa16.1 kmCalmScattered Clouds
8:55 PM0.7 °C-1.5 °C85 %1026.1 hPa16.1 kmCalmScattered Clouds
9:15 PM0.2 °C-1.6 °C88 %1026.4 hPa16.1 kmCalmScattered Clouds
9:35 PM-0.1 °C-2.2 °C86 %1026.1 hPa16.1 kmNNE (30°)5.6 km/hScattered Clouds
9:55 PM-0.6 °C-2.5 °C87 %1026.4 hPa16.1 kmCalmClear
10:15 PM-0.3 °C-2.6 °C85 %1026.4 hPa16.1 kmCalmClear
10:35 PM-0.6 °C-2.7 °C86 %1026.4 hPa16.1 kmCalmClear
10:55 PM-0.3 °C-2.5 °C85 %1026.4 hPa16.1 kmNNE (20°)7.4 km/hClear
11:15 PM-0.8 °C-3 °C85 %1026.1 hPa16.1 kmNE (40°)9.3 km/hClear
11:35 PM-0.5 °C-2.5 °C87 %1026.1 hPa16.1 kmNNE (30°)11.1 km/hClear
11:55 PM0.1 °C-3.9 °C75 %1026.1 hPa16.1 kmCalmClear
Hourly data recorded from KAJZ, located 0 kilometers away from Hotchkiss, Colorado







STORIES FROM OUR PARTNERS